Regional Weather Roundup
Issued by NWS

Home | Current Version | Previous Version | Text Only | Print | Product List | Glossary On
Versions: 1 2 3 4 5 6 7 8 9 10 11 12 13 14 15 16 17 18 19 20 21 22 23 24 25 26 27 28 29 30 31 32 33 34 35 36 37 38 39 40 41 42 43 44 45 46 47 48 49 50
000
ASUS44 KFWD 240015
RWRTX
NORTH TEXAS HOURLY WEATHER ROUNDUP
NATIONAL WEATHER SERVICE FORT WORTH TX
700 PM CDT WED APR 23 2014

NOTE: "FAIR" INDICATES FEW OR NO CLOUDS BELOW 12,000 FEET WITH NO
SIGNIFICANT WEATHER AND/OR OBSTRUCTIONS TO VISIBILITY.

TXZ118-119-240100-
DALLAS/FORT WORTH METROPLEX

CITY           SKY/WX    TMP DP  RH WIND       PRES   REMARKS
DFW AIRPORT    PTSUNNY   83  55  38 S18G28    29.71F
6HR MIN TEMP:  83; 6HR MAX TEMP:  87;

DALLAS LOVE    PTSUNNY   83  58  42 S21G29    29.73F
6HR MIN TEMP:  83; 6HR MAX TEMP:  87;

FTW MEACHAM    SUNNY     82  58  43 SE22G29   29.70F
6HR MIN TEMP:  82; 6HR MAX TEMP:  86;

DAL-EXECUTIVE  SUNNY     83  58  42 SE14G25   29.73F
6HR MIN TEMP:  82; 6HR MAX TEMP:  86;

FTW-ALLIANCE   PTSUNNY   80  56  43 SE20G29   29.70F
6HR MIN TEMP:  80; 6HR MAX TEMP:  83;

FTW-NAS-JRB    PTSUNNY   86  54  33 E16G26    29.73F
6HR MIN TEMP:  85; 6HR MAX TEMP:  89;

FTW-SPINKS     SUNNY     82  57  42 SE18G25   29.73F
ARLINGTON      SUNNY     83  56  39 SE16G29   29.72F
6HR MIN TEMP:  83; 6HR MAX TEMP:  87;

GRAND PRAIRIE  SUNNY     82  54  36 SE15G22   29.75F
ADDISON        MOSUNNY   82  57  42 SE15G25   29.74F
MESQUITE       SUNNY     81  59  47 SE13      29.76F
LANCASTER      SUNNY     81  57  43 S12       29.76F
6HR MIN TEMP:  80; 6HR MAX TEMP:  85;

$$

TXZ091>094-102>105-117-120-121-131>134-240100-
NORTH CENTRAL TEXAS

CITY           SKY/WX    TMP DP  RH WIND       PRES   REMARKS
SHRMAN/DENISON SUNNY     80  57  45 SE15G21   29.75F
6HR MIN TEMP:  78; 6HR MAX TEMP:  83;

GAINESVILLE    MOSUNNY   78  57  48 SE14      29.73F
6HR MIN TEMP:  78; 6HR MAX TEMP:  83;

BOWIE          MOSUNNY   83  55  38 SE14G21   29.68F
6HR MIN TEMP:  81; 6HR MAX TEMP:  85;

BRIDGEPORT     SUNNY     80  54  39 SE16G22   29.69F
6HR MIN TEMP:  80; 6HR MAX TEMP:  85;

DECATUR        SUNNY     80  55  42 SE18G24   29.69F
6HR MIN TEMP:  79; 6HR MAX TEMP:  84;

DENTON         SUNNY     81  57  43 SE21      29.71F
6HR MIN TEMP:  81; 6HR MAX TEMP:  85;

MCKINNEY       SUNNY     81  62  52 SE16      29.74F
6HR MIN TEMP:  81; 6HR MAX TEMP:  84;

GREENVILLE     SUNNY     81  57  44 SE10      29.78F
ROCKWALL       SUNNY     82  62  50 E12G18    29.75F
6HR MIN TEMP:  82; 6HR MAX TEMP:  86;

TERRELL        SUNNY     81  61  50 S9        29.77F
6HR MIN TEMP:  81; 6HR MAX TEMP:  85; 6HR PCP: TRACE;

WAXAHACHIE     SUNNY     80  56  42 SE12G18   29.75F
6HR MIN TEMP:  80; 6HR MAX TEMP:  84;

CLEBURNE       SUNNY     82  57  42 SE23      29.73F
GRANBURY       SUNNY     85  55  35 SE17G25   29.70S
6HR MIN TEMP:  85; 6HR MAX TEMP:  89;

$$

TXZ083>090-098>101-113>116-127>130-139>142-154-155-240100-
WESTERN NORTH TEXAS

CITY           SKY/WX    TMP DP  RH WIND       PRES   REMARKS
WICHITA FALLS  CLOUDY    82  56  40 SE16      29.64R
6HR MIN TEMP:  82; 6HR MAX TEMP:  88;

WF-KICKAPOO    PTSUNNY   83  53  34 SE16G25   29.65R
6HR MIN TEMP:  83; 6HR MAX TEMP:  88;

VERNON         CLOUDY    83  54  35 SE15G21     N/A  THUNDER
6HR MIN TEMP:  83; 6HR MAX TEMP:  90;

ABILENE        MOSUNNY   88  52  29 S20G29    29.62F
6HR MIN TEMP:  84; 6HR MAX TEMP:  91;

ABILENE-DYESS  MOSUNNY   89  53  29 S23G33    29.61F
6HR MIN TEMP:  84; 6HR MAX TEMP:  92;

BRECKENRIDGE   PTSUNNY   90  53  28 SE22G32   29.63F
6HR MIN TEMP:  86; 6HR MAX TEMP:  92;

GRAHAM         PTSUNNY   86  54  33 SE18G25   29.63S
6HR MIN TEMP:  84; 6HR MAX TEMP:  90;

MINERAL WELLS  MOSUNNY   83  56  39 SE21      29.66F
6HR MIN TEMP:  83; 6HR MAX TEMP:  89;

STEPHENVILLE   MOSUNNY   83  56  40 SE18G25   29.73S
6HR MIN TEMP:  83; 6HR MAX TEMP:  88;

COMANCHE       MOSUNNY   84  56  37 S20G29    29.70S
6HR MIN TEMP:  84; 6HR MAX TEMP:  90;

BROWNWOOD      MOSUNNY   86  57  37 SE16G30   29.68F
COLEMAN        PTSUNNY   86  54  32 S20G25    29.67F
6HR MIN TEMP:  84; 6HR MAX TEMP:  91;

BRADY          MOSUNNY   88  57  35 SE18      29.71F
$$

TXZ143>147-156>162-174-175-240100-
CENTRAL TEXAS

CITY           SKY/WX    TMP DP  RH WIND       PRES   REMARKS
WACO           SUNNY     81  61  50 SE23      29.74F
6HR MIN TEMP:  81; 6HR MAX TEMP:  86;

WACO-MCGREGOR  SUNNY     82  55  39 S16       29.76F
6HR MIN TEMP:  82; 6HR MAX TEMP:  88;

HILLSBORO      SUNNY     82  58  44 SE18      29.75F
6HR MIN TEMP:  82; 6HR MAX TEMP:  87;

CORSICANA      SUNNY     82  58  43 S14       29.78F
6HR MIN TEMP:  81; 6HR MAX TEMP:  87;

MEXIA          SUNNY     78  59  51 S8        29.79S
6HR MIN TEMP:  78; 6HR MAX TEMP:  83;

HEARNE         SUNNY     82  60  46 SE8       29.79S
6HR MIN TEMP:  82; 6HR MAX TEMP:  85;

CAMERON        SUNNY     83  60  46 SE10G16   29.77S
6HR MIN TEMP:  82; 6HR MAX TEMP:  87;

TEMPLE         SUNNY     81  55  41 SE18      29.79S
6HR MIN TEMP:  81; 6HR MAX TEMP:  88;

KILLEEN        MOSUNNY   81  63  54 SE21G28   29.75S
KILLEEN-SKYLRK SUNNY     82  61  47 SE16G24   29.75S
FORT HOOD      SUNNY     83  60  45 SE16G25   29.75F
6HR MIN TEMP:  83; 6HR MAX TEMP:  89;

GATESVILLE     SUNNY     81  61  50 SE16      29.76F
HAMILTON       MOSUNNY   83  58  42 SE20G33   29.74S
6HR MIN TEMP:  83; 6HR MAX TEMP:  89;

LAMPASAS       MOSUNNY   81  64  55 SE13G20   29.74F
6HR MIN TEMP:  81; 6HR MAX TEMP:  88;

$$

TXZ095>097-106>112-122>126-135>138-148>153-164>167-240100-
EAST TEXAS

CITY           SKY/WX    TMP DP  RH WIND       PRES   REMARKS
PARIS          MOSUNNY   79  59  50 SE9       29.80F
6HR MIN TEMP:  79; 6HR MAX TEMP:  82;

SULPHUR SPRNGS SUNNY     81  57  43 SE9       29.81S
6HR MIN TEMP:  80; 6HR MAX TEMP:  84;

CLARKSVILLE    MOSUNNY   81  56  42 CALM      29.80F
6HR MIN TEMP:  81; 6HR MAX TEMP:  84;

MOUNT PLEASANT MOSUNNY   78  58  49 SE8       29.82F
6HR MIN TEMP:  78; 6HR MAX TEMP:  83;

GILMER         SUNNY     81  57  44 SE7       29.83F
MINEOLA        SUNNY     81  55  41 SE7       29.80F
TYLER          SUNNY     82  57  42 SE9       29.80F
6HR MIN TEMP:  81; 6HR MAX TEMP:  85;

LONGVIEW       SUNNY     80  56  43 SE8       29.81F
6HR MIN TEMP:  80; 6HR MAX TEMP:  84;

MARSHALL       SUNNY     78  53  41 SE3       29.85F
6HR MIN TEMP:  78; 6HR MAX TEMP:  83;

ATHENS         SUNNY     79  61  53 SE7       29.78F
PALESTINE      PTSUNNY   82  60  48 SE10      29.82S
JACKSONVILLE   SUNNY     80  54  41 SE6       29.83F
HENDERSON      SUNNY     81  53  37 SE7       29.83F
6HR MIN TEMP:  81; 6HR MAX TEMP:  85;

NACOGDOCHES    MOSUNNY   79  61  53 SE8       29.83S
6HR MIN TEMP:  79; 6HR MAX TEMP:  84;

LUFKIN         SUNNY     83  64  52 SE15G21   29.82F
6HR MIN TEMP:  83; 6HR MAX TEMP:  88;

$$

SUPPLEMENTAL OBSERVATIONS (CENTRAL)

CITY           SKY/WX    TMP DP  RH WIND       PRES   REMARKS
LAKE TEXOMA      N/A     79  55  44 SE14        N/A
CADDO GRASSLND   N/A     81  57  44 S8G18       N/A
PAT MAYSE LAKE   N/A     79  57  47 SE10        N/A
GREENVILLE       N/A     81  59  47 SE8G17      N/A
PALESTINE        N/A    N/A N/A N/A S6          N/A
LAKE LIMESTONE   N/A     81  59  47 S7G16       N/A
MCGREGOR         N/A     81  57  44 S16G22      N/A
TEMPLE           N/A     81  59  47 SE12G20     N/A
$$

SUPPLEMENTAL OBSERVATIONS (WEST)




USA.gov is the U.S. government's official web portal to all federal, state and local government web resources and services.